[[{"header":{"parameterUnit":"m.s-1","parameterCategory":1,"la1":30.2991,"la2":30.254,"lo1":-89.0895,"lo2":-89.0444,"dy":0.0017,"dx":0.0017,"nx":28,"ny":28,"refTime":"2023-10-29T03:00:00:Z","depth":0,"parameterNumber":2,"parameterNumberName":"U-component_of_WINDS"},"data":[0,0,0,0,0,0,0,0,0,0,0,0,0,0,0,0,0,0,0,0,0,0,0,0,0,0,0,0,0,0,0,0,0,0,0,0,0,0,0,0,0,0,0,0,0,0,0,0,0,0,0,0,0,0,0,0,0,0,0.6921,0.6922,0,0.6951,0.6951,0.6952,0.6965,0.6965,0.6965,0.6965,0.6996,0.6997,0.6998,0,0,0,0,0,0,0,0,0,0,0,0,0,0.6878,0.6879,0.6921,0.6922,0.6922,0.6951,0.6951,0.6952,0.6965,0.6965,0.6965,0.6965,0.6996,0.6997,0.6998,0,0,0,0,0,0,0,0,0,0,0,0,0,0.6901,0.6879,0.6921,0.6932,0.6933,0.6951,0.6951,0.6952,0.6965,0.6965,0.6965,0.6965,0.6996,0.6997,0.6998,0.7007,0,0,0.7002,0.7003,0,0,0,0,0,0,0,0,0.69,0.6903,0.693,0.6931,0.6933,0.6954,0.6948,0.697,0.6965,0.6953,0.6965,0.6965,0.6982,0.6985,0.699,0.7009,0.701,0.7002,0.7003,0.7004,0.7004,0,0,0,0,0,0,0,0.6899,0.6902,0.6933,0.6931,0.6932,0.6936,0.694,0.6952,0.6968,0.6954,0.6955,0.6959,0.6983,0.6989,0.6991,0.701,0.7002,0.7003,0.7004,0.7005,0.704,0.704,0,0,0,0,0,0,0.6895,0.69,0.6932,0.6934,0.6916,0.6937,0.6941,0.6948,0.6968,0.6971,0.6959,0.6959,0.6987,0.699,0.6992,0.7005,0.7004,0.7005,0.7005,0.7039,0.704,0.704,0,0,0,0,0,0,0.6894,0.6898,0.6931,0.6918,0.6922,0.6938,0.6945,0.6948,0.6954,0.6971,0.6974,0.6962,0.6987,0.6991,0.7004,0.7007,0.7005,0.7006,0.7039,0.7039,0.704,0.703,0,0,0,0,0,0,0.6893,0.6897,0.69,0.6917,0.6923,0.6941,0.6946,0.6949,0.6956,0.6957,0.6975,0.6977,0.6987,0.7002,0.7005,0.7008,0.7007,0.7039,0.7039,0.704,0.7031,0.703,0.703,0,0,0,0,0,0.6891,0.6896,0.69,0.6904,0.6927,0.6941,0.6944,0.6955,0.6956,0.696,0.6971,0.6977,0.7006,0.7003,0.7007,0.701,0.7039,0.7039,0.704,0.7031,0.703,0.703,0,0,0,0,0,0,0.6878,0.6898,0.6903,0.6914,0.6926,0.6943,0.6948,0.6954,0.6966,0.6966,0.698,0.6984,0.6996,0.7005,0.7001,0.7021,0.7023,0.7024,0.7015,0.7015,0.7015,0.7012,0.7009,0,0,0,0,0,0.6877,0.6886,0.6904,0.6911,0.6917,0.6931,0.6938,0.6946,0.6959,0.6964,0.6976,0.6989,0.7001,0.7008,0.702,0.7032,0.7037,0.7037,0.7037,0.7037,0.7037,0.7046,0.7046,0.7041,0.7041,0.7041,0,0,0.6873,0.6885,0.6891,0.6909,0.6919,0.693,0.6935,0.6946,0.6954,0.6965,0.6979,0.6988,0.7004,0.7017,0.7023,0.7024,0.704,0.7037,0.7037,0.7038,0.7046,0.7047,0.7047,0.7041,0.7041,0.7041,0,0,0.6872,0.6882,0.689,0.6901,0.6916,0.6926,0.6928,0.6946,0.6952,0.6966,0.6975,0.6986,0.7006,0.7017,0.7025,0.7032,0.7038,0.7035,0.7034,0.7042,0.7043,0.7043,0.7046,0.7047,0.7036,0.7036,0.7036,0,0.6866,0.6882,0.6894,0.6904,0.6913,0.6924,0.6933,0.6943,0.6962,0.6968,0.6969,0.6996,0.7007,0.7023,0.7025,0.7031,0.7035,0.7033,0.7042,0.7042,0.7043,0.7046,0.7047,0.7036,0.7036,0.7036,0.7036,0,0.6874,0.6885,0.689,0.6908,0.6917,0.6926,0.6941,0.6949,0.6957,0.6967,0.6982,0.6996,0.7012,0.7016,0.7023,0.7035,0.7035,0.7039,0.7041,0.7043,0.7046,0.7047,0.7035,0.7035,0.7035,0.7035,0,0,0.6864,0.689,0.6892,0.6901,0.692,0.6929,0.694,0.6956,0.6963,0.6976,0.6986,0.7005,0.7009,0.7018,0.7027,0.7034,0.704,0.7038,0.7038,0.7038,0.7054,0.7051,0.7052,0.7045,0.7045,0.7045,0.7053,0,0.6866,0.6886,0.6898,0.6913,0.6924,0.6936,0.6946,0.696,0.697,0.6982,0.6994,0.7007,0.7011,0.7017,0.7025,0.7037,0.7043,0.7037,0.7055,0.7056,0.7051,0.7054,0.705,0.7057,0.7055,0.7055,0.7055,0,0.6871,0.6884,0.69,0.692,0.6925,0.6933,0.695,0.696,0.6977,0.6984,0.6996,0.7005,0.7019,0.702,0.704,0.7035,0.7044,0.7052,0.7052,0.7054,0.7055,0.7056,0.706,0.7061,0.7057,0.7057,0.7057,0,0.6863,0.6885,0.6898,0.6905,0.6928,0.6934,0.6944,0.696,0.6969,0.6984,0.699,0.7007,0.7015,0.7028,0.7043,0.7042,0.7061,0.7064,0.7069,0.7068,0.7071,0.7071,0.7076,0.7077,0.7077,0.7077,0.7077,0,0.6864,0.6873,0.6894,0.6902,0.6914,0.6929,0.694,0.6952,0.6966,0.6978,0.699,0.7,0.7018,0.7031,0.7043,0.7058,0.7062,0.7069,0.7072,0.7068,0.7067,0.7073,0.7073,0.7077,0.7077,0.7077,0.7077,0,0.6856,0.6871,0.6886,0.6907,0.6912,0.692,0.6938,0.6947,0.6959,0.6974,0.6978,0.6997,0.7013,0.7029,0.705,0.7058,0.7074,0.7077,0.7068,0.707,0.7074,0.7073,0.7083,0.7086,0.7084,0.7084,0.7084,0,0.6855,0.6863,0.6885,0.6894,0.6903,0.6916,0.6926,0.6942,0.6952,0.6973,0.6979,0.6997,0.7011,0.7037,0.7053,0.707,0.7075,0.7077,0.7077,0.7074,0.7076,0.7075,0.7076,0.7077,0.7077,0.7077,0.7077,0,0.6853,0.686,0.6874,0.689,0.6902,0.6916,0.693,0.6936,0.6955,0.6966,0.6983,0.6994,0.7017,0.7035,0.7054,0.7066,0.7075,0.7077,0.7079,0.7075,0.7069,0.7073,0.7067,0.7076,0.7076,0.7076,0.7076,0.7076,0.6849,0.6857,0.6875,0.689,0.6902,0.6916,0.6926,0.6939,0.6954,0.6973,0.6982,0.7,0.7018,0.7045,0.7057,0.7072,0.7074,0.7077,0.7077,0.7078,0.7077,0.7067,0.7075,0.7075,0.7075,0.7075,0.7075,0,0.6848,0.686,0.6874,0.6894,0.6906,0.6914,0.6931,0.6941,0.6956,0.6972,0.6987,0.7007,0.7025,0.7043,0.7062,0.7071,0.7075,0.7075,0.7074,0.7077,0.7074,0.707,0.7071,0.7071,0.7071,0.7071,0.7071,0.7071,0.6849,0.6863,0.6873,0.6894,0.6907,0.6924,0.6933,0.6946,0.6959,0.6981,0.6996,0.7008,0.7026,0.7047,0.7064,0.7069,0.7076,0.7074,0.7081,0.7077,0.7077,0.7077,0.7074,0.7076,0.7076,0.7083,0.7083,0.7083]},{"header":{"parameterUnit":"m.s-1","parameterCategory":1,"la1":30.2991,"la2":30.254,"lo1":-89.0895,"lo2":-89.0444,"dy":0.0017,"dx":0.0017,"nx":28,"ny":28,"refTime":"2023-10-29T03:00:00:Z","depth":0,"parameterNumber":3,"parameterNumberName":"V-component_of_WINDS"},"data":[0,0,0,0,0,0,0,0,0,0,0,0,0,0,0,0,0,0,0,0,0,0,0,0,0,0,0,0,0,0,0,0,0,0,0,0,0,0,0,0,0,0,0,0,0,0,0,0,0,0,0,0,0,0,0,0,0,0,-7.8564,-7.8565,0,-7.8689,-7.8691,-7.8692,-7.8639,-7.8636,-7.8633,-7.8631,-7.8751,-7.8757,-7.8763,0,0,0,0,0,0,0,0,0,0,0,0,0,-7.8272,-7.8278,-7.8564,-7.8566,-7.8567,-7.8689,-7.8691,-7.8693,-7.864,-7.8636,-7.8633,-7.8629,-7.8749,-7.8756,-7.8763,0,0,0,0,0,0,0,0,0,0,0,0,0,-7.8398,-7.828,-7.8564,-7.8556,-7.8556,-7.8689,-7.8691,-7.8693,-7.8641,-7.8636,-7.8632,-7.8628,-7.8747,-7.8755,-7.8764,-7.891,0,0,-7.8792,-7.8796,0,0,0,0,0,0,0,0,-7.8391,-7.8409,-7.8555,-7.8557,-7.8557,-7.8644,-7.8632,-7.8765,-7.8642,-7.8608,-7.863,-7.8625,-7.8719,-7.873,-7.8763,-7.8915,-7.892,-7.8793,-7.8798,-7.8802,-7.8804,0,0,0,0,0,0,0,-7.8383,-7.8403,-7.8613,-7.8558,-7.8559,-7.8544,-7.8557,-7.8657,-7.8687,-7.8611,-7.8607,-7.8623,-7.8718,-7.8754,-7.8765,-7.8922,-7.8792,-7.88,-7.8806,-7.8809,-7.9201,-7.9206,0,0,0,0,0,0,-7.8375,-7.8396,-7.8609,-7.8617,-7.8462,-7.8553,-7.8567,-7.8621,-7.8686,-7.8691,-7.8627,-7.8621,-7.8741,-7.8755,-7.8769,-7.8944,-7.8802,-7.881,-7.8815,-7.9196,-7.9202,-7.9207,0,0,0,0,0,0,-7.8369,-7.8394,-7.8604,-7.8506,-7.8532,-7.8563,-7.8623,-7.8626,-7.8662,-7.8698,-7.8702,-7.8659,-7.8738,-7.8757,-7.8876,-7.8948,-7.8814,-7.8822,-7.919,-7.9198,-7.9205,-7.9295,0,0,0,0,0,0,-7.8361,-7.8392,-7.8449,-7.8508,-7.8537,-7.8711,-7.8628,-7.8631,-7.8678,-7.8671,-7.8729,-7.8734,-7.8736,-7.8863,-7.8885,-7.8958,-7.883,-7.9184,-7.9193,-7.9202,-7.9286,-7.9305,-7.9321,0,0,0,0,0,-7.835,-7.8468,-7.8453,-7.8479,-7.8609,-7.8715,-7.8732,-7.8734,-7.8684,-7.8741,-7.8765,-7.8732,-7.8937,-7.8875,-7.89,-7.8976,-7.9179,-7.9191,-7.9202,-7.9278,-7.9301,-7.9321,0,0,0,0,0,0,-7.8414,-7.8475,-7.8459,-7.8599,-7.8653,-7.8706,-7.8778,-7.8758,-7.8825,-7.8814,-7.8812,-7.8825,-7.8949,-7.8974,-7.8905,-7.9121,-7.905,-7.9067,-7.91,-7.9122,-7.9139,-7.913,-7.8837,0,0,0,0,0,-7.8445,-7.8528,-7.8576,-7.8695,-7.8724,-7.8747,-7.8792,-7.879,-7.8844,-7.8865,-7.8898,-7.8949,-7.9025,-7.9075,-7.9147,-7.929,-7.9301,-7.9354,-7.9372,-7.9386,-7.94,-7.9478,-7.9503,-7.9244,-7.9244,-7.9244,0,0,-7.8508,-7.8552,-7.8604,-7.8709,-7.875,-7.8835,-7.8766,-7.8857,-7.892,-7.8878,-7.8994,-7.902,-7.9077,-7.921,-7.9269,-7.9234,-7.9475,-7.9401,-7.9412,-7.9418,-7.9492,-7.9517,-7.9539,-7.9252,-7.9251,-7.9249,0,0,-7.8667,-7.8709,-7.8814,-7.8858,-7.8922,-7.8937,-7.8962,-7.902,-7.9036,-7.9153,-7.9124,-7.9196,-7.9327,-7.937,-7.9408,-7.9586,-7.9559,-7.9609,-7.9701,-7.9777,-7.9797,-7.9815,-7.9879,-7.9902,-7.9624,-7.9624,-7.9624,0,-7.8737,-7.8866,-7.8869,-7.8965,-7.9012,-7.8982,-7.9087,-7.9128,-7.9211,-7.9244,-7.9204,-7.9369,-7.9405,-7.9548,-7.9592,-7.9624,-7.9651,-7.9602,-7.9795,-7.9813,-7.983,-7.989,-7.9914,-7.963,-7.9629,-7.9628,-7.9628,0,-7.8949,-7.9039,-7.9115,-7.92,-7.9256,-7.9355,-7.9372,-7.9427,-7.942,-7.9439,-7.9558,-7.9601,-7.9681,-7.9715,-7.9707,-7.9857,-7.9833,-7.9795,-7.9723,-7.986,-7.9917,-7.994,-7.9638,-7.9636,-7.9634,-7.9633,0,0,-7.9149,-7.9238,-7.9266,-7.9305,-7.9375,-7.9443,-7.9541,-7.9623,-7.9671,-7.9729,-7.9811,-7.9923,-7.9889,-7.9933,-7.993,-7.9997,-8.0136,-7.995,-7.9951,-7.9983,-8.0302,-8.0331,-8.0358,-8.0118,-8.0123,-8.0126,-8.0298,0,-7.9314,-7.949,-7.9496,-7.9655,-7.9738,-7.9712,-7.9797,-7.9848,-7.9868,-7.994,-7.996,-8.0041,-7.9989,-8.0016,-8.0081,-8.0105,-8.0199,-8.0093,-8.0192,-8.0196,-8.0179,-8.0388,-8.0418,-8.0577,-8.032,-8.0324,-8.0326,0,-7.9529,-7.9599,-7.9767,-7.9827,-7.9862,-7.9939,-8.0015,-8.0085,-8.0142,-8.0152,-8.0203,-8.0191,-8.0289,-8.0216,-8.035,-8.0278,-8.0319,-8.0337,-8.0343,-8.0352,-8.0269,-8.0402,-8.0628,-8.0652,-8.0361,-8.0358,-8.0356,0,-7.9659,-7.9795,-7.9913,-7.9947,-8.002,-8.0075,-8.0107,-8.0161,-8.021,-8.0276,-8.0307,-8.0383,-8.0424,-8.0481,-8.0489,-8.0435,-8.0625,-8.0552,-8.0635,-8.0635,-8.0675,-8.0673,-8.0911,-8.0703,-8.0702,-8.0702,-8.0701,0,-7.9842,-7.9946,-7.9973,-8.0046,-8.0162,-8.0168,-8.0281,-8.0309,-8.0357,-8.0433,-8.0414,-8.0485,-8.0492,-8.0565,-8.0571,-8.0682,-8.0701,-8.071,-8.0711,-8.0712,-8.0711,-8.0738,-8.0727,-8.0708,-8.0707,-8.0705,-8.0704,0,-8.0006,-8.0029,-8.0157,-8.0217,-8.0234,-8.0316,-8.0366,-8.0435,-8.0454,-8.0551,-8.0574,-8.0603,-8.0689,-8.0703,-8.0802,-8.0807,-8.094,-8.0928,-8.0921,-8.092,-8.1002,-8.0994,-8.1266,-8.1302,-8.107,-8.1073,-8.1074,0,-8.0122,-8.0202,-8.0271,-8.0323,-8.0359,-8.0442,-8.0493,-8.0502,-8.0556,-8.0628,-8.0688,-8.0772,-8.084,-8.0977,-8.1006,-8.1082,-8.1072,-8.1163,-8.1083,-8.1083,-8.1074,-8.1069,-8.1077,-8.1177,-8.118,-8.1182,-8.1184,0,-8.0324,-8.0332,-8.0408,-8.0489,-8.0552,-8.0615,-8.0675,-8.0717,-8.0734,-8.0795,-8.0884,-8.0937,-8.1041,-8.1124,-8.12,-8.123,-8.121,-8.1209,-8.1232,-8.1234,-8.1227,-8.1232,-8.0963,-8.1202,-8.12,-8.1199,-8.1198,-8.1197,-8.0467,-8.0537,-8.0598,-8.0684,-8.0731,-8.0788,-8.0857,-8.0886,-8.0961,-8.1048,-8.1048,-8.1146,-8.1201,-8.1302,-8.1338,-8.1412,-8.1383,-8.1416,-8.1425,-8.1433,-8.1441,-8.1216,-8.1426,-8.1425,-8.1425,-8.1425,-8.1424,0,-8.0668,-8.0707,-8.0786,-8.0873,-8.094,-8.0919,-8.0984,-8.1041,-8.1128,-8.1183,-8.1252,-8.1354,-8.1435,-8.1471,-8.1551,-8.1604,-8.1596,-8.1624,-8.162,-8.1628,-8.1463,-8.1435,-8.1629,-8.1629,-8.1629,-8.1629,-8.1629,-8.1629,-8.0781,-8.09,-8.0915,-8.1056,-8.1093,-8.1191,-8.1231,-8.1283,-8.1327,-8.1443,-8.1512,-8.1536,-8.1583,-8.1667,-8.174,-8.1748,-8.1778,-8.1811,-8.1814,-8.166,-8.1639,-8.1619,-8.1593,-8.1817,-8.1817,-8.1973,-8.1974,-8.1975]}]]